Weather in Solodovka

Russia / Volgograd Oblast     48°40′28″N   45°23′30″E
temp.,
°C
wind,
m/s
gust,
m/s
humid.,
%
clouds,
%
prec.,
mm/h
press.,
hPa
HPBL,
m
25 october, mon
mon2500:00+8nw475066 0.0 1019192
03:00+6wnw475988 0.0 1019161
06:00+4nw611704 0.0 1020339
09:00+6nnw810625 0.0 1023869
12:00+7nw894395 0.0 10241414
15:00+7nnw783846 0.0 10251570
18:00+5nnw611465 0.0 1028479
21:00+2n59585 0.0 1030355
26 october, tue
tue2600:00+1nnw47655 0.0 1030156
03:000nnw3669100 0.0 1031127
06:000nnw36695 0.0 1032132
09:00+3n34545 0.0 1033418
12:00+6nnw33380 0.0 1032966
15:00+7nw33305 0.0 10311078
18:00+4nw22394 0.0 103215
21:00+3wsw33425 0.0 103217
27 october, wed
wed2700:00+2wsw22455 0.0 103214
03:00+1wsw22475 0.0 103213
06:000wsw23525 0.0 103214
09:00+5sw23384 0.0 1033223
12:00+9sw34250 0.0 1031774
15:00+10sw34225 0.0 1030899
18:00+6ssw44310 0.0 103045
21:00+4ssw45400 0.0 102967
28 october, thu
thu2800:00+3sw46490 0.0 102985
03:00+2sw45541 0.0 102868
06:00+2sw455730 0.0 102860
09:00+6sw46485 0.0 1028256
12:00+11sw56375 0.0 1027766
15:00+12wsw453460 0.0 10251079
18:00+8wsw2246100 0.0 102513
21:00+7wsw3350100 0.0 102543
29 october, fri
fri2900:00+6wsw335569 0.0 102440
03:00+5wsw33605 0.0 102430
06:00+4wsw33575 0.0 102438
09:00+8w46335 0.0 1024243
12:00+13w563596 0.0 1023713
15:00+13nw4644100 0.0 1023772
18:00+9nnw3571100 0.1 1025260
21:00+8n367750 0.1 1026195